Weather in Kamennyy Brod

Russia / Samara Oblast     52°53′40″N   49°58′05″E
temp.,
°C
wind,
m/s
gust,
m/s
humid.,
%
clouds,
%
prec.,
mm/h
press.,
hPa
HPBL,
m
21 january, fri
fri2101:00−14sse119799 0.2 102120
04:00−14sse239886 0.3 102141
07:00−15sse2298100 0.1 102232
10:00−14sse259791 0.2 102295
13:00−11sse369573 0.0 1022177
16:00−12se369652 0.1 1021114
19:00−16se369969 0.0 102275
22:00−17se239996 0.0 102246
22 january, sat
sat2201:00−11se41294100 0.0 1021263
04:00−10se51293100 0.1 1020308
07:00−8sse61492100 0.0 1020416
10:00−7sse71594100 0.3 1021545
13:00−5sse61494100 0.7 1021598
16:00−5sse61392100 1.3 1022538
19:00−5sse61394100 0.2 1023429
22:00−6sse61493100 0.4 1024466
23 january, sun
sun2301:00−6sse51391100 0.5 1026460
04:00−7sse51391100 0.6 1027360
07:00−8se51191100 0.1 1028311
10:00−8se41088100 0.1 1030315
13:00−7se4985100 0.0 1031292
16:00−8ese4984100 0.0 1032272
19:00−11e4890100 0.0 1034153
22:00−11e3889100 0.0 1035153
24 january, mon
mon2401:00−11e3889100 0.0 1036144
04:00−12e3790100 0.0 1037112
07:00−11e4890100 0.0 1037171
10:00−11e4989100 0.0 1038199
13:00−9ese4882100 0.0 1038243
16:00−9ese3884100 0.0 1037225
19:00−13e3490100 0.0 103862
22:00−16e2391100 0.0 103833
25 january, tue
tue2501:00−19e2293100 0.0 103826
04:00−19ese229394 0.0 103717
07:00−23e2296100 0.0 103712
10:00−19e2393100 0.0 103749
13:00−13ese248399 0.0 1036125
16:00−14ese2289100 0.0 103531
19:00−20ese229534 0.0 103519
22:00−21ese22955 0.0 103515